Regional Weather Roundup
Issued by NWS

Home | Current Version | Previous Version | Graphics & Text | Print | Product List | Glossary On
Versions: 1 2 3 4 5 6 7 8 9 10 11 12 13 14 15 16 17 18 19 20 21 22 23 24 25 26 27 28 29 30 31 32 33 34 35 36 37 38 39 40 41 42 43 44 45 46 47 48 49 50
000
ASUS45 KBOI 191710
RWRID

IDAHO REGIONAL WEATHER ROUNDUP
NATIONAL WEATHER SERVICE BOISE ID
1000 AM MST THU JAN 19 2017

NOTE: "FAIR" INDICATES FEW OR NO CLOUDS BELOW 12000 FEET
WITH NO SIGNIFICANT WEATHER AND/OR OBSTRUCTIONS TO VISIBILITY

IDZ012-014-191800-
SOUTHWEST IDAHO


CITY           SKY/WX    TMP DP  RH WIND       PRES   REMARKS
BOISE          CLOUDY    38  33  82 SE12      29.66R WCI  30
CALDWELL       CLOUDY    35  32  88 SE7       29.69S WCI  29
MOUNTAIN HOME  PTSUNNY   33  33 100 SE22      29.69R WCI  21
$$

IDZ016-017-191800-
SOUTHCENTRAL IDAHO


CITY           SKY/WX    TMP DP  RH WIND       PRES   REMARKS
BURLEY         CLOUDY    36  29  75 S17       29.69R WCI  26
JEROME         CLOUDY    28  27  96 NE16      29.71R WCI  16
TWIN FALLS     CLOUDY    37  30  75 S12       29.69R WCI  29
$$

IDZ019>023-191800-
SOUTHEAST IDAHO


CITY           SKY/WX    TMP DP  RH WIND       PRES   REMARKS
IDAHO FALLS    SNOW      27  26  96 CALM      29.74S VSB 1/2
POCATELLO      LGT SNOW  32  30  92 NE6       29.73R VSB 1   WCI  26
REXBURG        LGT SNOW  27  26  96 NE3       29.73S VSB 1
$$

IDZ006-010-011-018-031-032-191800-
CENTRAL IDAHO MOUNTAINS


CITY           SKY/WX    TMP DP  RH WIND       PRES   REMARKS
MCCALL         LGT SNOW  32  30  92 S7        29.58R FOG     WCI  26
HAILEY         LGT SNOW  28  28 100 CALM      29.71R VSB 1
STANLEY          N/A     32  28  85 SE13G18   29.61R WCI  22
SALMON         CLOUDY    21  18  86 CALM      29.66R
CHALLIS        CLOUDY    20  19  96 CALM      29.64F FOG
$$

IDZ002-004-006-007-026-191800-
NORTHERN IDAHO


CITY           SKY/WX    TMP DP  RH WIND       PRES   REMARKS
LEWISTON       CLOUDY    37  34  89 E3        29.64R
LOWELL           N/A     33  31  92 CALM      29.67R
COEUR D`ALENE  CLOUDY    37  34  89 S7        29.59R WCI  32
MULLAN PASS    LGT SNOW  31  27  85 VRB3      29.53R VSB 1
$$



USA.gov is the U.S. government's official web portal to all federal, state and local government web resources and services.